Weather History for Marion, OH

Change the Weather History Date:

Friday, May 17, 2013

  Actual Average (KDLZ) Record (KDLZ)
Temperature  
Mean Temperature 65 °F -  
Max Temperature 80 °F 71 °F 95 °F (1962)
Min Temperature 51 °F 46 °F 34 °F (1984)
Growing Degree Days 15 (Base 50)    
Moisture  
Dew Point 56 °F    
Average Humidity 84    
Maximum Humidity 100    
Minimum Humidity 36    
Precipitation  
Precipitation 0.00 in - - ()
Sea Level Pressure  
Sea Level Pressure 30.06 in    
Wind  
Wind Speed 3 mph (SSE)    
Max Wind Speed 12 mph    
Max Gust Speed -    
Visibility 4 miles    
Events Fog    
Averages and records for this station are not official NWS values.
T = Trace of Precipitation, MM = Missing Value Source: NWS Daily Summary

Daily Weather History Graph

Daily Weather History Graph

Search for Another Location

Airport:

Trip Planner

Search our weather history database for the weather conditions in past years. The results will help you decide how hot, cold, wet, or windy it might be!

Date:

Astronomy

May. 17, 2013 Rise Set
Actual Time 6:13 AM EDT 8:44 PM EDT
Civil Twilight 5:42 AM EDT 9:15 PM EDT
Nautical Twilight 5:03 AM EDT 9:54 PM EDT
Astronomical Twilight 4:19 AM EDT 10:38 PM EDT
Moon 12:45 PM EDT (5/17) 1:35 AM EDT (5/17)
Length of Visible Light 15h 33m
Length of Day
14h 31m
Waxing Crescent, 45% of the Moon is Illuminated
May 17
Waxing Crescent
May 18
First Quarter
May 25
Full
May 31
Last Quarter
Jun 8
New

Hourly Weather History & Observations

Time (EDT) Temp. Dew Point Humidity Pressure Visibility Wind Dir Wind Speed Gust Speed Precip Events Conditions
12:53 AM 57.9 °F 53.1 °F 84% 29.99 in 10.0 mi SSW 4.6 mph - N/A   Clear
1:53 AM 57.9 °F 55.9 °F 93% 30.00 in 7.0 mi SSW 4.6 mph - N/A   Clear
2:53 AM 55.9 °F 55.0 °F 97% 29.99 in 4.0 mi Calm Calm - N/A   Clear
3:12 AM 55.4 °F 53.6 °F 94% 30.01 in 2.5 mi Calm Calm - N/A   Clear
3:17 AM 53.6 °F 51.8 °F 94% 30.01 in 1.0 mi Calm Calm - N/A   Mist
3:24 AM 53.6 °F 53.6 °F 100% 30.01 in 0.2 mi Calm Calm - N/A Fog Fog
3:53 AM 52.0 °F 52.0 °F 100% 30.01 in 0.2 mi Calm Calm - N/A Fog Fog
4:03 AM 51.8 °F 51.8 °F 100% 30.02 in 0.2 mi SSW 6.9 mph - N/A Fog Fog
4:13 AM 55.4 °F 53.6 °F 94% 30.02 in 1.2 mi Calm Calm - N/A   Scattered Clouds
4:23 AM 55.4 °F 55.4 °F 100% 30.02 in 0.8 mi Calm Calm - N/A   Mist
4:31 AM 53.6 °F 53.6 °F 100% 30.02 in 0.2 mi Calm Calm - N/A Fog Fog
4:48 AM 51.8 °F 51.8 °F 100% 30.02 in 0.2 mi Calm Calm - N/A Fog Fog
4:53 AM 53.1 °F 53.1 °F 100% 30.01 in 0.2 mi Calm Calm - N/A Fog Fog
5:53 AM 51.1 °F 51.1 °F 100% 30.03 in 0.2 mi South 3.5 mph - N/A Fog Fog
6:53 AM 54.0 °F 53.1 °F 97% 30.05 in 0.2 mi Variable 4.6 mph - N/A Fog Fog
8:53 AM 59.0 °F 59.0 °F 100% 30.09 in 0.2 mi Calm Calm - N/A Fog Fog
9:53 AM 60.1 °F 60.1 °F 100% 30.09 in 0.2 mi Calm Calm - N/A Fog Fog
10:19 AM 60.8 °F 60.8 °F 100% 30.10 in 1.0 mi SE 3.5 mph - N/A   Overcast
10:26 AM 60.8 °F 60.8 °F 100% 30.10 in 1.5 mi Calm Calm - N/A   Overcast
10:48 AM 62.6 °F 60.8 °F 94% 30.11 in 2.0 mi South 4.6 mph - N/A   Overcast
10:53 AM 62.1 °F 61.0 °F 96% 30.11 in 2.5 mi South 5.8 mph - N/A   Overcast
11:12 AM 64.4 °F 62.6 °F 94% 30.11 in 3.0 mi SSE 6.9 mph - N/A   Overcast
11:19 AM 64.4 °F 62.6 °F 94% 30.11 in 3.0 mi South 5.8 mph - N/A   Overcast
11:53 AM 66.9 °F 62.1 °F 84% 30.11 in 4.0 mi SSE 6.9 mph - N/A   Haze
12:15 PM 69.8 °F 62.6 °F 78% 30.11 in 5.0 mi SSE 6.9 mph - N/A   Haze
12:53 PM 71.1 °F 63.0 °F 75% 30.09 in 6.0 mi South 6.9 mph - N/A   Haze
1:53 PM 73.9 °F 63.0 °F 68% 30.09 in 8.0 mi SSW 4.6 mph - N/A   Clear
3:53 PM 78.1 °F 57.0 °F 48% 30.06 in 10.0 mi Variable 5.8 mph - N/A   Clear
4:53 PM 78.1 °F 55.9 °F 46% 30.04 in 10.0 mi South 4.6 mph - N/A   Clear
5:53 PM 79.0 °F 50.0 °F 36% 30.04 in 10.0 mi Calm Calm - N/A   Clear
6:53 PM 73.9 °F 54.0 °F 50% 30.04 in 10.0 mi East 11.5 mph - N/A   Clear
7:53 PM 72.0 °F 54.0 °F 53% 30.06 in 10.0 mi East 9.2 mph - N/A   Clear
8:53 PM 68.0 °F 55.0 °F 63% 30.09 in 10.0 mi ENE 10.4 mph - N/A   Clear
9:53 PM 63.0 °F 53.1 °F 70% 30.10 in 10.0 mi NNE 6.9 mph - N/A   Clear
10:53 PM 62.1 °F 48.9 °F 62% 30.12 in 10.0 mi WSW 10.4 mph - N/A   Clear
11:53 PM 61.0 °F 50.0 °F 67% 30.10 in 10.0 mi Calm Calm - N/A   Clear